Regional Weather Roundup
Issued by NWS

Home | Current Version | Previous Version | Graphics & Text | Print | Product List | Glossary On
Versions: 1 2 3 4 5 6 7 8 9 10 11 12 13 14 15 16 17 18 19 20 21 22 23 24 25 26 27 28 29 30 31 32 33 34 35 36 37 38 39 40 41 42 43 44 45 46 47 48 49 50
000
ASUS44 KMEG 091317
RWRTN

TENNESSEE HOURLY STATE WEATHER ROUNDUP
NATIONAL WEATHER SERVICE MEMPHIS TN
700 AM CST TUE FEB 09 2016

TNZ002-004-019-021-049-052-054-088>092-091400-
WEST TENNESSEE

CITY           SKY/WX    TMP DP  RH WIND       PRES   REMARKS
MEMPHIS INTL   PTCLDY    32  14  47 NW20G25   29.98R WCI  20
NWS MEMPHIS      N/A     31 N/A N/A MISG        N/A
JACKSON        LGT SNOW  26  20  77 NW10      29.95R WCI  16
DYERSBURG      CLOUDY    25  21  86 NE5       29.97S WCI  19
UNION CITY     CLOUDY    21  19  93 N5        29.94R WCI  15
PARIS          MOCLDY    19  14  79 VRB7      29.91R WCI  10
$$

TNZ008-025-027-028-033-062-065-066-091400-
NORTH MIDDLE TENNESSEE

CITY           SKY/WX    TMP DP  RH WIND       PRES   REMARKS
NASHVILLE      LGT SNOW  26  18  71 NW6       29.89R WCI  19
CLARKSVILLE    CLOUDY    23  18  81 NW10      29.89S WCI  12
SMYRNA         FLURRIES  25  20  81 N8        29.90R WCI  16
COOKEVILLE     CLOUDY    23  19  86 W7        29.82F WCI  15
CROSSVILLE     FLURRIES  20  14  77 W7        29.78S WCI  11
$$

TNZ061-075-076-078-094-096-097-091400-
SOUTH MIDDLE TENNESSEE

CITY           SKY/WX    TMP DP  RH WIND       PRES   REMARKS
FAYETTEVILLE   CLOUDY    28  23  80 W5        29.86S WCI  23
TULLAHOMA      CLOUDY    25  25 100 W7        29.85R WCI  17
WINCHESTER     CLOUDY    25  21  86 N3        29.86R
MCMINNVILLE    CLOUDY    25  19  80 MISG      29.84S
COLUMBIA       MOCLDY    27  27 100 W3        29.87S
SHELBYVILLE    CLOUDY    27  25  93 W6        29.87S WCI  20
$$

TNZ017-018-042-046-047-091400-
NORTHEAST TENNESSEE

CITY           SKY/WX    TMP DP  RH WIND       PRES   REMARKS
TRI CITIES     LGT SNOW  24  22  91 W7        29.73R FOG     WCI  16
$$

TNZ012-013-036-069-073-074-091400-
CENTRAL EAST TENNESSEE

CITY           SKY/WX    TMP DP  RH WIND       PRES   REMARKS
KNOXVILLE      CLOUDY    26  13  57 W15       29.82R WCI  14
OAK RIDGE      FLURRIES  26  18  71 W6        29.84R WCI  19
GATLINBURG     CLOUDY    27  14  59 W13       29.79S WCI  16
MORRISTOWN     CLOUDY    23  19  86 N13G20    29.77R HAZE    WCI  11
$$

TNZ083-085-099-091400-
SOUTHEAST TENNESSEE

CITY           SKY/WX    TMP DP  RH WIND       PRES   REMARKS
CHATTANOOGA    LGT SNOW  28  20  71 N7        29.87R FOG     WCI  21
$$

SKY/WX REPORTED AS FAIR MEANS FEW OR NO CLOUDS BELOW
12 THOUSAND FEET.


USA.gov is the U.S. government's official web portal to all federal, state and local government web resources and services.